Regional Weather Roundup
Issued by NWS

Home | Current Version | Previous Version | Graphics & Text | Print | Product List | Glossary On
Versions: 1 2 3 4 5 6 7 8 9 10 11 12 13 14 15 16 17 18 19 20 21 22 23 24 25 26 27 28
000
ASUS45 KBOI 150210
RWRID
WEATHER ROUNDUP FOR IDAHO
NATIONAL WEATHER SERVICE BOISE ID
800 PM MDT MON APR 14 2014

NOTE: "FAIR" INDICATES FEW OR NO CLOUDS BELOW 12000 FEET
WITH NO SIGNIFICANT WEATHER AND/OR OBSTRUCTIONS TO VISIBILITY

IDZ012-014-150300-
SOUTHWEST IDAHO


CITY           SKY/WX    TMP DP  RH WIND       PRES   REMARKS
BOISE          PTCLDY    61  17  18 CALM      30.08F
CALDWELL       PTCLDY    59  27  29 NE6       30.09F
MOUNTAIN HOME  MOCLDY    63  11  13 NE3       30.07F
$$

IDZ016-017-150300-
SOUTHCENTRAL IDAHO


CITY           SKY/WX    TMP DP  RH WIND       PRES   REMARKS
BURLEY         CLEAR     54  17  23 NW5       30.10F
JEROME         MOCLDY    51  22  31 N5        30.10F
TWIN FALLS     PTCLDY    55  19  24 NE5       30.10F
$$

IDZ019>023-150300-
SOUTHEAST IDAHO


CITY           SKY/WX    TMP DP  RH WIND       PRES   REMARKS
IDAHO FALLS    PTCLDY    51  12  21 S9        30.11F
POCATELLO      CLEAR     53  11  18 SW12      30.13F
REXBURG        PTCLDY    48   6  18 S9        30.11F
$$

IDZ006-010-011-018-031-032-150300-
CENTRAL IDAHO MOUNTAINS


CITY           SKY/WX    TMP DP  RH WIND       PRES   REMARKS
MCCALL         MOCLDY    48  15  26 SW6       30.10F
HAILEY         MOCLDY    54  10  17 SW12      30.12F
STANLEY          N/A     43  13  29 S3        30.13F
SALMON         PTCLDY    54  16  22 W3        30.00F
CHALLIS        PTCLDY    54   8  16 W7        30.04S
$$

IDZ002-004-006-007-026-150300-
NORTHERN IDAHO


CITY           SKY/WX    TMP DP  RH WIND       PRES   REMARKS
LEWISTON       CLOUDY    66  22  18 SE3       29.96F
LOWELL           N/A     53  41  63 CALM      30.00F
COEUR D`ALENE  CLOUDY    57  27  30 SW10      29.96F
MULLAN PASS    MOCLDY    41  12  30 SW8       30.01F
$$



USA.gov is the U.S. government's official web portal to all federal, state and local government web resources and services.